Orbital Elements at Epoch 2459200.5 (2020-Dec-17.0) TDB
Reference: JPL 2 (heliocentric ecliptic J2000)
Element | Value | Uncertainty (1-sigma) | Units |
e | .2309658343574779 | 0.00021894 | |
a | 1.299800632163812 | 0.00037167 | au |
q | .9995910946577201 | 1.944e-06 | au |
i | 9.158147755487688 | 0.0066061 | deg |
node | 25.48732005436795 | 0.00032604 | deg |
peri | 158.99391708 | 0.0043343 | deg |
M | 302.4224487969086 | 0.28784 | deg |
tp | 2459287.069365036429 (2021-Mar-13.56936504) | 0.4699 | TDB |
period | 541.269483712277 1.48 | 0.23216 0.0006356 | d yr |
n | .6651030786567778 | 0.00028527 | deg/d |
Q | 1.600010169669904 | 0.00045751 | au |
|
| | Orbit Determination Parameters
Additional Information
|